contact:dominique.lefevre@mio.osupytheas.fr, maurice.libes@osupytheas.fr, didier.mallarino@osupytheas.fr
Project:EMSO http://www.emso-fr.org/EMSO-France
Depth: 2436.0 m
Title:EMSO Ligure Ouest : Data MII capteur CSTAR
DateTime,Latitude,Longitude,Instrument_Serial,Reference_Counts,Signal_Counts,Corrected_Signal_raw_counts,Calculated_Beam_c_inverse_meters,Internal_thermistor_counts
DateTime,Latitude,Longitude,Instrument_Serial,Reference_Counts,Signal_Counts,Corrected_Signal_raw_counts,Calculated_Beam_c_inverse_meters,Internal_thermistor_counts
2020-02-04T00:01:17,42.805,6.029,CST-1368DR,6843,9593,15246,0.096,551
2020-02-04T00:04:19,42.805,6.029,CST-1368DR,6843,9593,15244,0.096,551
2020-02-04T00:07:20,42.805,6.029,CST-1368DR,6843,9593,15245,0.096,551
2020-02-04T00:10:22,42.805,6.029,CST-1368DR,6843,9592,15243,0.097,551
2020-02-04T00:13:24,42.805,6.029,CST-1368DR,6843,9592,15244,0.096,551
2020-02-04T00:16:26,42.805,6.029,CST-1368DR,6843,9590,15241,0.097,551
2020-02-04T00:19:27,42.805,6.029,CST-1368DR,6843,9569,15207,0.106,551
2020-02-04T00:22:29,42.805,6.029,CST-1368DR,6843,9591,15242,0.097,551
2020-02-04T00:25:30,42.805,6.029,CST-1368DR,6843,9592,15244,0.096,551
2020-02-04T00:28:32,42.805,6.029,CST-1368DR,6843,9591,15242,0.097,551
2020-02-04T00:31:34,42.805,6.029,CST-1368DR,6843,9592,15244,0.096,551
2020-02-04T00:34:35,42.805,6.029,CST-1368DR,6843,9593,15245,0.096,551
2020-02-04T00:37:37,42.805,6.029,CST-1368DR,6843,9593,15246,0.096,551
2020-02-04T00:40:39,42.805,6.029,CST-1368DR,6843,9593,15245,0.096,551
2020-02-04T00:43:40,42.805,6.029,CST-1368DR,6843,9593,15245,0.096,551
2020-02-04T00:46:42,42.805,6.029,CST-1368DR,6843,9593,15245,0.096,550
2020-02-04T00:49:44,42.805,6.029,CST-1368DR,6843,9593,15245,0.096,551
2020-02-04T00:52:45,42.805,6.029,CST-1368DR,6843,9593,15246,0.096,551
2020-02-04T00:55:47,42.805,6.029,CST-1368DR,6843,9594,15246,0.096,551
2020-02-04T00:58:48,42.805,6.029,CST-1368DR,6843,9593,15245,0.096,551
2020-02-04T01:01:50,42.805,6.029,CST-1368DR,6843,9594,15246,0.096,551
2020-02-04T01:04:52,42.805,6.029,CST-1368DR,6843,9593,15246,0.096,551
2020-02-04T01:07:54,42.805,6.029,CST-1368DR,6843,9594,15246,0.096,551
2020-02-04T01:10:55,42.805,6.029,CST-1368DR,6843,9593,15246,0.096,551
2020-02-04T01:13:57,42.805,6.029,CST-1368DR,6843,9593,15245,0.096,551
2020-02-04T01:16:58,42.805,6.029,CST-1368DR,6843,9593,15246,0.096,551
2020-02-04T01:20:00,42.805,6.029,CST-1368DR,6843,9593,15244,0.096,551
2020-02-04T01:23:02,42.805,6.029,CST-1368DR,6843,9592,15244,0.096,551
2020-02-04T01:26:03,42.805,6.029,CST-1368DR,6843,9592,15244,0.096,551
2020-02-04T01:29:05,42.805,6.029,CST-1368DR,6843,9593,15244,0.096,551
2020-02-04T01:32:07,42.805,6.029,CST-1368DR,6843,9592,15244,0.096,551
2020-02-04T01:35:08,42.805,6.029,CST-1368DR,6843,9592,15244,0.096,551
2020-02-04T01:38:10,42.805,6.029,CST-1368DR,6843,9593,15245,0.096,551
2020-02-04T01:41:12,42.805,6.029,CST-1368DR,6843,9592,15244,0.096,551
2020-02-04T01:44:13,42.805,6.029,CST-1368DR,6843,9592,15243,0.097,551
2020-02-04T01:47:15,42.805,6.029,CST-1368DR,6843,9593,15244,0.096,551
2020-02-04T01:50:17,42.805,6.029,CST-1368DR,6843,9592,15243,0.097,551
2020-02-04T01:53:18,42.805,6.029,CST-1368DR,6843,9592,15243,0.097,550
2020-02-04T01:56:20,42.805,6.029,CST-1368DR,6843,9592,15244,0.096,551
2020-02-04T01:59:21,42.805,6.029,CST-1368DR,6843,9592,15244,0.096,551
2020-02-04T02:02:23,42.805,6.029,CST-1368DR,6843,9591,15241,0.097,551
2020-02-04T02:05:25,42.805,6.029,CST-1368DR,6843,9593,15245,0.096,551
2020-02-04T02:08:26,42.805,6.029,CST-1368DR,6843,9592,15244,0.096,551
2020-02-04T02:11:28,42.805,6.029,CST-1368DR,6843,9592,15243,0.097,551
2020-02-04T02:14:30,42.805,6.029,CST-1368DR,6843,9592,15243,0.097,551
2020-02-04T02:17:31,42.805,6.029,CST-1368DR,6843,9592,15243,0.097,551
2020-02-04T02:20:33,42.805,6.029,CST-1368DR,6843,9592,15243,0.097,550
2020-02-04T02:23:34,42.805,6.029,CST-1368DR,6843,9592,15244,0.096,551
2020-02-04T02:26:36,42.805,6.029,CST-1368DR,6843,9592,15243,0.097,551
2020-02-04T02:29:38,42.805,6.029,CST-1368DR,6843,9592,15243,0.097,550
2020-02-04T02:32:39,42.805,6.029,CST-1368DR,6843,9592,15244,0.096,551
2020-02-04T02:35:41,42.805,6.029,CST-1368DR,6843,9593,15245,0.096,551
2020-02-04T02:38:43,42.805,6.029,CST-1368DR,6843,9592,15244,0.096,551
2020-02-04T02:41:44,42.805,6.029,CST-1368DR,6843,9592,15244,0.096,551
2020-02-04T02:44:46,42.805,6.029,CST-1368DR,6843,9592,15244,0.096,551
2020-02-04T02:47:47,42.805,6.029,CST-1368DR,6843,9592,15244,0.096,551
2020-02-04T02:50:49,42.805,6.029,CST-1368DR,6843,9592,15244,0.096,551
2020-02-04T02:53:51,42.805,6.029,CST-1368DR,6843,9592,15244,0.096,551
2020-02-04T02:56:52,42.805,6.029,CST-1368DR,6843,9592,15244,0.096,551
2020-02-04T02:59:54,42.805,6.029,CST-1368DR,6843,9593,15244,0.096,551
2020-02-04T03:02:56,42.805,6.029,CST-1368DR,6843,9592,15243,0.097,551
2020-02-04T03:05:57,42.805,6.029,CST-1368DR,6843,9592,15243,0.097,551
2020-02-04T03:08:59,42.805,6.029,CST-1368DR,6842,9592,15246,0.096,551
2020-02-04T03:12:00,42.805,6.029,CST-1368DR,6842,9592,15246,0.096,551
2020-02-04T03:15:02,42.805,6.029,CST-1368DR,6842,9593,15247,0.096,551
2020-02-04T03:18:04,42.805,6.029,CST-1368DR,6842,9591,15245,0.096,551
2020-02-04T03:21:05,42.805,6.029,CST-1368DR,6842,9592,15245,0.096,551
2020-02-04T03:24:07,42.805,6.029,CST-1368DR,6842,9590,15243,0.097,551
2020-02-04T03:27:09,42.805,6.029,CST-1368DR,6842,9591,15245,0.096,551
2020-02-04T03:30:10,42.805,6.029,CST-1368DR,6842,9591,15245,0.096,551
2020-02-04T03:33:12,42.805,6.029,CST-1368DR,6842,9591,15243,0.097,551
2020-02-04T03:36:13,42.805,6.029,CST-1368DR,6842,9591,15245,0.096,551
2020-02-04T03:39:15,42.805,6.029,CST-1368DR,6842,9592,15245,0.096,551
2020-02-04T03:42:17,42.805,6.029,CST-1368DR,6842,9591,15243,0.097,551
2020-02-04T03:45:18,42.805,6.029,CST-1368DR,6842,9590,15243,0.097,551
2020-02-04T03:48:20,42.805,6.029,CST-1368DR,6842,9590,15243,0.097,551
2020-02-04T03:51:22,42.805,6.029,CST-1368DR,6842,9590,15242,0.097,551
2020-02-04T03:54:23,42.805,6.029,CST-1368DR,6842,9590,15243,0.097,551
2020-02-04T03:57:25,42.805,6.029,CST-1368DR,6842,9591,15243,0.097,551
2020-02-04T04:00:26,42.805,6.029,CST-1368DR,6842,9591,15244,0.096,551
2020-02-04T04:03:28,42.805,6.029,CST-1368DR,6842,9592,15245,0.096,551
2020-02-04T04:06:30,42.805,6.029,CST-1368DR,6842,9592,15245,0.096,551
2020-02-04T04:09:31,42.805,6.029,CST-1368DR,6842,9591,15245,0.096,551
2020-02-04T04:12:33,42.805,6.029,CST-1368DR,6842,9592,15246,0.096,551
2020-02-04T04:15:35,42.805,6.029,CST-1368DR,6842,9592,15245,0.096,551
2020-02-04T04:18:36,42.805,6.029,CST-1368DR,6842,9591,15245,0.096,551
2020-02-04T04:21:38,42.805,6.029,CST-1368DR,6842,9592,15245,0.096,551
2020-02-04T04:24:39,42.805,6.029,CST-1368DR,6842,9592,15246,0.096,551
2020-02-04T04:27:41,42.805,6.029,CST-1368DR,6842,9591,15243,0.097,551
2020-02-04T04:30:44,42.805,6.029,CST-1368DR,6842,9592,15245,0.096,551
2020-02-04T04:33:45,42.805,6.029,CST-1368DR,6842,9588,15239,0.098,551
2020-02-04T04:36:47,42.805,6.029,CST-1368DR,6842,9592,15245,0.096,551
2020-02-04T04:39:48,42.805,6.029,CST-1368DR,6842,9592,15245,0.096,551
2020-02-04T04:42:50,42.805,6.029,CST-1368DR,6842,9591,15243,0.097,551
2020-02-04T04:45:52,42.805,6.029,CST-1368DR,6842,9592,15246,0.096,551
2020-02-04T04:48:53,42.805,6.029,CST-1368DR,6842,9591,15243,0.097,551
2020-02-04T04:51:55,42.805,6.029,CST-1368DR,6842,9592,15245,0.096,551
2020-02-04T04:54:57,42.805,6.029,CST-1368DR,6842,9590,15243,0.097,551
2020-02-04T04:57:58,42.805,6.029,CST-1368DR,6842,9588,15239,0.098,551
2020-02-04T05:01:00,42.805,6.029,CST-1368DR,6842,9589,15241,0.097,551
2020-02-04T05:04:01,42.805,6.029,CST-1368DR,6842,9592,15246,0.096,551
2020-02-04T05:07:03,42.805,6.029,CST-1368DR,6842,9592,15246,0.096,551
2020-02-04T05:10:05,42.805,6.029,CST-1368DR,6842,9591,15243,0.097,551
2020-02-04T05:13:06,42.805,6.029,CST-1368DR,6842,9592,15246,0.096,551
2020-02-04T05:16:08,42.805,6.029,CST-1368DR,6842,9592,15245,0.096,551
2020-02-04T05:19:10,42.805,6.029,CST-1368DR,6842,9589,15241,0.097,551
2020-02-04T05:22:11,42.805,6.029,CST-1368DR,6842,9591,15244,0.096,550
2020-02-04T05:25:13,42.805,6.029,CST-1368DR,6842,9591,15243,0.097,551
2020-02-04T05:28:15,42.805,6.029,CST-1368DR,6842,9591,15243,0.097,551
2020-02-04T05:31:16,42.805,6.029,CST-1368DR,6842,9591,15245,0.096,551
2020-02-04T05:34:18,42.805,6.029,CST-1368DR,6842,9591,15244,0.096,551
2020-02-04T05:37:19,42.805,6.029,CST-1368DR,6842,9590,15243,0.097,551
2020-02-04T05:40:21,42.805,6.029,CST-1368DR,6842,9591,15243,0.097,551
2020-02-04T05:43:23,42.805,6.029,CST-1368DR,6842,9590,15243,0.097,551
2020-02-04T05:46:25,42.805,6.029,CST-1368DR,6842,9591,15243,0.097,551
2020-02-04T05:49:27,42.805,6.029,CST-1368DR,6842,9591,15244,0.096,551
2020-02-04T05:52:28,42.805,6.029,CST-1368DR,6842,9590,15243,0.097,551
2020-02-04T05:55:30,42.805,6.029,CST-1368DR,6842,9591,15243,0.097,551
2020-02-04T05:58:32,42.805,6.029,CST-1368DR,6842,9588,15239,0.098,551
2020-02-04T06:01:33,42.805,6.029,CST-1368DR,6842,9590,15243,0.097,550
2020-02-04T06:04:35,42.805,6.029,CST-1368DR,6842,9591,15244,0.096,551
2020-02-04T06:07:36,42.805,6.029,CST-1368DR,6842,9591,15245,0.096,551
2020-02-04T06:10:38,42.805,6.029,CST-1368DR,6842,9591,15243,0.097,551
2020-02-04T06:13:40,42.805,6.029,CST-1368DR,6842,9591,15245,0.096,551
2020-02-04T06:16:41,42.805,6.029,CST-1368DR,6842,9591,15245,0.096,551
2020-02-04T06:19:43,42.805,6.029,CST-1368DR,6842,9592,15245,0.096,551
2020-02-04T06:25:06,42.805,6.029,CST-1368DR,6842,9591,15244,0.096,551
2020-02-04T06:28:08,42.805,6.029,CST-1368DR,6842,9591,15244,0.096,551
2020-02-04T06:31:09,42.805,6.029,CST-1368DR,6842,9591,15244,0.096,551
2020-02-04T06:34:11,42.805,6.029,CST-1368DR,6842,9592,15245,0.096,551
2020-02-04T06:37:13,42.805,6.029,CST-1368DR,6842,9590,15243,0.097,551
2020-02-04T06:40:15,42.805,6.029,CST-1368DR,6842,9591,15245,0.096,551
2020-02-04T06:43:16,42.805,6.029,CST-1368DR,6842,9592,15246,0.096,551
2020-02-04T06:46:18,42.805,6.029,CST-1368DR,6842,9592,15246,0.096,551
2020-02-04T06:49:20,42.805,6.029,CST-1368DR,6842,9591,15244,0.096,551
2020-02-04T06:52:21,42.805,6.029,CST-1368DR,6842,9591,15244,0.096,551
2020-02-04T06:55:23,42.805,6.029,CST-1368DR,6841,9589,15243,0.097,551
2020-02-04T06:58:25,42.805,6.029,CST-1368DR,6842,9591,15245,0.096,551
2020-02-04T07:01:27,42.805,6.029,CST-1368DR,6841,9590,15244,0.096,551
2020-02-04T07:04:28,42.805,6.029,CST-1368DR,6842,9589,15241,0.097,551
2020-02-04T07:07:30,42.805,6.029,CST-1368DR,6842,9591,15244,0.096,551
2020-02-04T07:10:31,42.805,6.029,CST-1368DR,6841,9591,15247,0.096,551
2020-02-04T07:13:33,42.805,6.029,CST-1368DR,6841,9591,15246,0.096,551
2020-02-04T07:16:35,42.805,6.029,CST-1368DR,6842,9591,15245,0.096,551
2020-02-04T07:19:36,42.805,6.029,CST-1368DR,6841,9591,15247,0.096,551
2020-02-04T07:22:38,42.805,6.029,CST-1368DR,6842,9592,15245,0.096,551
2020-02-04T07:25:40,42.805,6.029,CST-1368DR,6842,9591,15243,0.097,551
2020-02-04T07:28:41,42.805,6.029,CST-1368DR,6841,9591,15245,0.096,551
2020-02-04T07:31:43,42.805,6.029,CST-1368DR,6841,9590,15245,0.096,551
2020-02-04T07:34:45,42.805,6.029,CST-1368DR,6841,9590,15245,0.096,551
2020-02-04T07:37:46,42.805,6.029,CST-1368DR,6841,9590,15245,0.096,551
2020-02-04T07:40:48,42.805,6.029,CST-1368DR,6841,9589,15243,0.097,551
2020-02-04T07:43:50,42.805,6.029,CST-1368DR,6841,9589,15243,0.097,551
2020-02-04T07:46:51,42.805,6.029,CST-1368DR,6841,9592,15247,0.096,551
2020-02-04T07:49:53,42.805,6.029,CST-1368DR,6841,9591,15246,0.096,551
2020-02-04T07:52:55,42.805,6.029,CST-1368DR,6841,9591,15245,0.096,551
2020-02-04T07:55:56,42.805,6.029,CST-1368DR,6841,9592,15247,0.096,551
2020-02-04T07:58:58,42.805,6.029,CST-1368DR,6841,9590,15244,0.096,551
2020-02-04T08:01:59,42.805,6.029,CST-1368DR,6841,9590,15245,0.096,551
2020-02-04T08:05:01,42.805,6.029,CST-1368DR,6841,9590,15245,0.096,551
2020-02-04T08:08:03,42.805,6.029,CST-1368DR,6841,9590,15245,0.096,551
2020-02-04T08:11:04,42.805,6.029,CST-1368DR,6841,9589,15243,0.097,551
2020-02-04T08:14:06,42.805,6.029,CST-1368DR,6841,9591,15247,0.096,551
2020-02-04T08:17:08,42.805,6.029,CST-1368DR,6841,9591,15247,0.096,551
2020-02-04T08:20:09,42.805,6.029,CST-1368DR,6841,9589,15243,0.097,551
2020-02-04T08:23:11,42.805,6.029,CST-1368DR,6841,9590,15245,0.096,551
2020-02-04T08:26:12,42.805,6.029,CST-1368DR,6841,9591,15245,0.096,551
2020-02-04T08:29:14,42.805,6.029,CST-1368DR,6841,9590,15245,0.096,551
2020-02-04T08:32:16,42.805,6.029,CST-1368DR,6841,9591,15246,0.096,550
2020-02-04T08:35:17,42.805,6.029,CST-1368DR,6841,9589,15243,0.097,551
2020-02-04T08:38:19,42.805,6.029,CST-1368DR,6841,9588,15242,0.097,551
2020-02-04T08:41:21,42.805,6.029,CST-1368DR,6841,9591,15247,0.096,551
2020-02-04T08:44:22,42.805,6.029,CST-1368DR,6841,9590,15245,0.096,551
2020-02-04T08:47:24,42.805,6.029,CST-1368DR,6841,9591,15245,0.096,551
2020-02-04T08:50:26,42.805,6.029,CST-1368DR,6841,9592,15247,0.096,551
2020-02-04T08:53:27,42.805,6.029,CST-1368DR,6841,9591,15245,0.096,551
2020-02-04T08:56:29,42.805,6.029,CST-1368DR,6841,9591,15245,0.096,551
2020-02-04T08:59:30,42.805,6.029,CST-1368DR,6841,9590,15245,0.096,551
2020-02-04T09:02:32,42.805,6.029,CST-1368DR,6841,9591,15246,0.096,551
2020-02-04T09:05:34,42.805,6.029,CST-1368DR,6841,9591,15246,0.096,551
2020-02-04T09:08:35,42.805,6.029,CST-1368DR,6841,9590,15244,0.096,551
2020-02-04T09:11:37,42.805,6.029,CST-1368DR,6841,9592,15247,0.096,551
2020-02-04T09:14:39,42.805,6.029,CST-1368DR,6841,9590,15244,0.096,551
2020-02-04T09:17:40,42.805,6.029,CST-1368DR,6841,9590,15245,0.096,551
2020-02-04T09:20:42,42.805,6.029,CST-1368DR,6841,9589,15243,0.097,551
2020-02-04T09:23:43,42.805,6.029,CST-1368DR,6841,9590,15244,0.096,551
2020-02-04T09:26:45,42.805,6.029,CST-1368DR,6841,9590,15244,0.096,551
2020-02-04T09:29:47,42.805,6.029,CST-1368DR,6841,9589,15243,0.097,551
2020-02-04T09:32:48,42.805,6.029,CST-1368DR,6841,9589,15243,0.097,551
2020-02-04T09:35:50,42.805,6.029,CST-1368DR,6841,9589,15243,0.097,551
2020-02-04T09:38:52,42.805,6.029,CST-1368DR,6841,9590,15244,0.096,551
2020-02-04T09:41:53,42.805,6.029,CST-1368DR,6841,9588,15241,0.097,551
2020-02-04T09:44:55,42.805,6.029,CST-1368DR,6841,9590,15244,0.096,551
2020-02-04T09:47:56,42.805,6.029,CST-1368DR,6841,9589,15243,0.097,551
2020-02-04T09:50:58,42.805,6.029,CST-1368DR,6841,9590,15245,0.096,551
2020-02-04T09:54:00,42.805,6.029,CST-1368DR,6841,9589,15243,0.097,551
2020-02-04T09:57:01,42.805,6.029,CST-1368DR,6841,9589,15243,0.097,551
2020-02-04T10:00:03,42.805,6.029,CST-1368DR,6841,9589,15243,0.097,551
2020-02-04T10:03:05,42.805,6.029,CST-1368DR,6841,9588,15242,0.097,551
2020-02-04T10:06:06,42.805,6.029,CST-1368DR,6841,9590,15244,0.096,551
2020-02-04T10:09:08,42.805,6.029,CST-1368DR,6841,9590,15245,0.096,551
2020-02-04T10:12:10,42.805,6.029,CST-1368DR,6841,9590,15244,0.096,551
2020-02-04T10:15:11,42.805,6.029,CST-1368DR,6841,9590,15244,0.096,551
2020-02-04T10:18:13,42.805,6.029,CST-1368DR,6841,9590,15245,0.096,551
2020-02-04T10:21:15,42.805,6.029,CST-1368DR,6841,9586,15238,0.098,551
2020-02-04T10:24:16,42.805,6.029,CST-1368DR,6841,9590,15245,0.096,551
2020-02-04T10:27:18,42.805,6.029,CST-1368DR,6841,9590,15244,0.096,551
2020-02-04T10:30:19,42.805,6.029,CST-1368DR,6841,9590,15244,0.096,551
2020-02-04T10:33:21,42.805,6.029,CST-1368DR,6841,9591,15245,0.096,551
2020-02-04T10:36:23,42.805,6.029,CST-1368DR,6841,9590,15244,0.096,551
2020-02-04T10:39:24,42.805,6.029,CST-1368DR,6841,9590,15244,0.096,551
2020-02-04T10:42:26,42.805,6.029,CST-1368DR,6841,9589,15243,0.097,551
2020-02-04T10:45:28,42.805,6.029,CST-1368DR,6841,9589,15243,0.097,551
2020-02-04T10:48:29,42.805,6.029,CST-1368DR,6841,9589,15243,0.097,551
2020-02-04T10:51:31,42.805,6.029,CST-1368DR,6841,9589,15243,0.097,551
2020-02-04T10:54:33,42.805,6.029,CST-1368DR,6841,9590,15244,0.096,551
2020-02-04T10:57:34,42.805,6.029,CST-1368DR,6841,9586,15238,0.098,551
2020-02-04T11:00:36,42.805,6.029,CST-1368DR,6841,9586,15237,0.098,551
2020-02-04T11:03:38,42.805,6.029,CST-1368DR,6841,9590,15244,0.096,551
2020-02-04T11:06:39,42.805,6.029,CST-1368DR,6841,9589,15243,0.097,551
2020-02-04T11:09:41,42.805,6.029,CST-1368DR,6841,9590,15244,0.096,551
2020-02-04T11:12:43,42.805,6.029,CST-1368DR,6841,9589,15243,0.097,551
2020-02-04T11:15:44,42.805,6.029,CST-1368DR,6840,9590,15247,0.096,551
2020-02-04T11:18:46,42.805,6.029,CST-1368DR,6841,9589,15243,0.097,550
2020-02-04T11:21:47,42.805,6.029,CST-1368DR,6841,9586,15239,0.098,551
2020-02-04T11:24:49,42.805,6.029,CST-1368DR,6840,9590,15246,0.096,551
2020-02-04T11:27:51,42.805,6.029,CST-1368DR,6841,9589,15242,0.097,551
2020-02-04T11:30:52,42.805,6.029,CST-1368DR,6840,9587,15242,0.097,551
2020-02-04T11:33:54,42.805,6.029,CST-1368DR,6840,9589,15245,0.096,551
2020-02-04T11:36:56,42.805,6.029,CST-1368DR,6840,9589,15246,0.096,551
2020-02-04T11:39:57,42.805,6.029,CST-1368DR,6840,9589,15245,0.096,550
2020-02-04T11:42:59,42.805,6.029,CST-1368DR,6840,9588,15243,0.097,551
2020-02-04T11:46:01,42.805,6.029,CST-1368DR,6840,9588,15244,0.096,551
2020-02-04T11:49:02,42.805,6.029,CST-1368DR,6840,9587,15242,0.097,551
2020-02-04T11:52:04,42.805,6.029,CST-1368DR,6840,9588,15243,0.097,551
2020-02-04T11:55:06,42.805,6.029,CST-1368DR,6840,9589,15244,0.096,551
2020-02-04T11:58:07,42.805,6.029,CST-1368DR,6840,9588,15244,0.096,551
2020-02-04T12:01:09,42.805,6.029,CST-1368DR,6840,9589,15245,0.096,551
2020-02-04T12:04:10,42.805,6.029,CST-1368DR,6840,9588,15244,0.096,551
2020-02-04T12:07:12,42.805,6.029,CST-1368DR,6840,9588,15244,0.096,551
2020-02-04T12:10:14,42.805,6.029,CST-1368DR,6840,9588,15243,0.097,551
2020-02-04T12:13:15,42.805,6.029,CST-1368DR,6840,9587,15242,0.097,551
2020-02-04T12:16:17,42.805,6.029,CST-1368DR,6840,9589,15245,0.096,551
2020-02-04T12:19:19,42.805,6.029,CST-1368DR,6840,9589,15244,0.096,551
2020-02-04T12:22:20,42.805,6.029,CST-1368DR,6840,9588,15243,0.097,551
2020-02-04T12:25:22,42.805,6.029,CST-1368DR,6840,9586,15241,0.097,550
2020-02-04T12:28:24,42.805,6.029,CST-1368DR,6840,9587,15242,0.097,551
2020-02-04T12:31:25,42.805,6.029,CST-1368DR,6840,9584,15237,0.098,551
2020-02-04T12:34:27,42.805,6.029,CST-1368DR,6840,9587,15242,0.097,551
2020-02-04T12:37:29,42.805,6.029,CST-1368DR,6840,9588,15243,0.097,551
2020-02-04T12:40:30,42.805,6.029,CST-1368DR,6840,9587,15242,0.097,551
2020-02-04T12:43:32,42.805,6.029,CST-1368DR,6840,9588,15244,0.096,551
2020-02-04T12:46:34,42.805,6.029,CST-1368DR,6840,9587,15242,0.097,551
2020-02-04T12:49:35,42.805,6.029,CST-1368DR,6840,9587,15242,0.097,551
2020-02-04T12:52:37,42.805,6.029,CST-1368DR,6840,9587,15242,0.097,551
2020-02-04T12:55:39,42.805,6.029,CST-1368DR,6840,9588,15243,0.097,550
2020-02-04T12:58:40,42.805,6.029,CST-1368DR,6840,9587,15242,0.097,551
2020-02-04T13:01:42,42.805,6.029,CST-1368DR,6840,9587,15242,0.097,551
2020-02-04T13:04:43,42.805,6.029,CST-1368DR,6840,9587,15241,0.097,551
2020-02-04T13:07:45,42.805,6.029,CST-1368DR,6840,9586,15241,0.097,550
2020-02-04T13:10:47,42.805,6.029,CST-1368DR,6840,9584,15237,0.098,551
2020-02-04T13:13:48,42.805,6.029,CST-1368DR,6840,9587,15241,0.097,551
2020-02-04T13:16:50,42.805,6.029,CST-1368DR,6840,9585,15239,0.098,551
2020-02-04T13:19:52,42.805,6.029,CST-1368DR,6840,9583,15236,0.099,551
2020-02-04T13:22:53,42.805,6.029,CST-1368DR,6840,9587,15241,0.097,551
2020-02-04T13:25:55,42.805,6.029,CST-1368DR,6840,9586,15241,0.097,551
2020-02-04T13:28:57,42.805,6.029,CST-1368DR,6840,9585,15239,0.098,551
2020-02-04T13:31:58,42.805,6.029,CST-1368DR,6840,9588,15243,0.097,551
2020-02-04T13:35:00,42.805,6.029,CST-1368DR,6840,9586,15241,0.097,551
2020-02-04T13:38:02,42.805,6.029,CST-1368DR,6840,9587,15241,0.097,551
2020-02-04T13:41:03,42.805,6.029,CST-1368DR,6840,9587,15242,0.097,551
2020-02-04T13:44:05,42.805,6.029,CST-1368DR,6840,9587,15242,0.097,551
2020-02-04T13:47:07,42.805,6.029,CST-1368DR,6840,9588,15243,0.097,551
2020-02-04T13:50:08,42.805,6.029,CST-1368DR,6840,9586,15241,0.097,551
2020-02-04T13:53:10,42.805,6.029,CST-1368DR,6840,9586,15241,0.097,551
2020-02-04T13:56:11,42.805,6.029,CST-1368DR,6840,9587,15242,0.097,551
2020-02-04T13:59:13,42.805,6.029,CST-1368DR,6840,9586,15241,0.097,551
2020-02-04T14:02:15,42.805,6.029,CST-1368DR,6840,9587,15242,0.097,551
2020-02-04T14:05:16,42.805,6.029,CST-1368DR,6840,9587,15241,0.097,551
2020-02-04T14:08:18,42.805,6.029,CST-1368DR,6840,9586,15240,0.097,551
2020-02-04T14:11:20,42.805,6.029,CST-1368DR,6840,9586,15240,0.097,551
2020-02-04T14:14:21,42.805,6.029,CST-1368DR,6840,9587,15242,0.097,551
2020-02-04T14:17:23,42.805,6.029,CST-1368DR,6840,9585,15239,0.098,551
2020-02-04T14:20:25,42.805,6.029,CST-1368DR,6840,9586,15240,0.097,551
2020-02-04T14:23:26,42.805,6.029,CST-1368DR,6840,9588,15243,0.097,551
2020-02-04T14:26:28,42.805,6.029,CST-1368DR,6840,9588,15244,0.096,550
2020-02-04T14:29:30,42.805,6.029,CST-1368DR,6840,9585,15239,0.098,551
2020-02-04T14:32:31,42.805,6.029,CST-1368DR,6840,9587,15242,0.097,551
2020-02-04T14:35:33,42.805,6.029,CST-1368DR,6840,9587,15241,0.097,551
2020-02-04T14:38:35,42.805,6.029,CST-1368DR,6840,9587,15241,0.097,551
2020-02-04T14:41:36,42.805,6.029,CST-1368DR,6840,9585,15238,0.098,551
2020-02-04T14:44:38,42.805,6.029,CST-1368DR,6840,9586,15240,0.097,551
2020-02-04T14:47:39,42.805,6.029,CST-1368DR,6840,9584,15237,0.098,551
2020-02-04T14:50:41,42.805,6.029,CST-1368DR,6839,9585,15241,0.097,551
2020-02-04T14:53:43,42.805,6.029,CST-1368DR,6840,9586,15240,0.097,551
2020-02-04T14:56:44,42.805,6.029,CST-1368DR,6839,9586,15243,0.097,551
2020-02-04T14:59:46,42.805,6.029,CST-1368DR,6840,9586,15241,0.097,551
2020-02-04T15:02:48,42.805,6.029,CST-1368DR,6840,9586,15241,0.097,551
2020-02-04T15:05:49,42.805,6.029,CST-1368DR,6840,9586,15240,0.097,551
2020-02-04T15:08:51,42.805,6.029,CST-1368DR,6840,9587,15242,0.097,551
2020-02-04T15:11:53,42.805,6.029,CST-1368DR,6840,9587,15241,0.097,551
2020-02-04T15:14:54,42.805,6.029,CST-1368DR,6840,9586,15240,0.097,551
2020-02-04T15:17:56,42.805,6.029,CST-1368DR,6839,9587,15243,0.097,551
2020-02-04T15:20:58,42.805,6.029,CST-1368DR,6839,9587,15244,0.096,551
2020-02-04T15:23:59,42.805,6.029,CST-1368DR,6839,9586,15242,0.097,551
2020-02-04T15:27:01,42.805,6.029,CST-1368DR,6839,9586,15242,0.097,551
2020-02-04T15:30:03,42.805,6.029,CST-1368DR,6839,9586,15242,0.097,551
2020-02-04T15:33:04,42.805,6.029,CST-1368DR,6839,9586,15242,0.097,551
2020-02-04T15:36:06,42.805,6.029,CST-1368DR,6839,9585,15241,0.097,551
2020-02-04T15:39:07,42.805,6.029,CST-1368DR,6839,9586,15243,0.097,550
2020-02-04T15:42:09,42.805,6.029,CST-1368DR,6839,9587,15243,0.097,551
2020-02-04T15:45:11,42.805,6.029,CST-1368DR,6839,9585,15241,0.097,551
2020-02-04T15:48:12,42.805,6.029,CST-1368DR,6839,9586,15242,0.097,551
2020-02-04T15:51:14,42.805,6.029,CST-1368DR,6839,9587,15244,0.096,551
2020-02-04T15:54:16,42.805,6.029,CST-1368DR,6839,9585,15241,0.097,551
2020-02-04T15:57:18,42.805,6.029,CST-1368DR,6839,9586,15242,0.097,551
2020-02-04T16:00:19,42.805,6.029,CST-1368DR,6839,9586,15243,0.097,551
2020-02-04T16:03:21,42.805,6.029,CST-1368DR,6839,9586,15242,0.097,551
2020-02-04T16:06:22,42.805,6.029,CST-1368DR,6839,9586,15242,0.097,551
2020-02-04T16:09:24,42.805,6.029,CST-1368DR,6839,9586,15242,0.097,551
2020-02-04T16:12:26,42.805,6.029,CST-1368DR,6839,9586,15242,0.097,551
2020-02-04T16:15:27,42.805,6.029,CST-1368DR,6839,9585,15241,0.097,551
2020-02-04T16:18:29,42.805,6.029,CST-1368DR,6839,9585,15241,0.097,551
2020-02-04T16:21:31,42.805,6.029,CST-1368DR,6839,9587,15243,0.097,551
2020-02-04T16:24:32,42.805,6.029,CST-1368DR,6839,9587,15244,0.096,551
2020-02-04T16:27:34,42.805,6.029,CST-1368DR,6839,9585,15241,0.097,551
2020-02-04T16:30:36,42.805,6.029,CST-1368DR,6839,9585,15240,0.097,551
2020-02-04T16:33:37,42.805,6.029,CST-1368DR,6839,9585,15240,0.097,551
2020-02-04T16:36:39,42.805,6.029,CST-1368DR,6839,9586,15242,0.097,551
2020-02-04T16:39:40,42.805,6.029,CST-1368DR,6839,9585,15240,0.097,551
2020-02-04T16:42:42,42.805,6.029,CST-1368DR,6839,9586,15242,0.097,551
2020-02-04T16:45:44,42.805,6.029,CST-1368DR,6839,9585,15240,0.097,551
2020-02-04T16:48:45,42.805,6.029,CST-1368DR,6839,9586,15242,0.097,551
2020-02-04T16:51:47,42.805,6.029,CST-1368DR,6839,9587,15244,0.096,551
2020-02-04T16:54:49,42.805,6.029,CST-1368DR,6839,9585,15241,0.097,551